Tracking 28790 objects as of 19-Apr-2024
HD Live streaming from Space Station
objects crossing your sky now

NOAA 16 DEB

Track NOAA 16 DEB now!
10-day predictions


NORAD ID: 41364
Int'l Code: 2000-055JH
Perigee: 820.9 km
Apogee: 840.6 km
Inclination: 98.7 °
Period: 101.4 minutes
Semi major axis: 7201 km
RCS: Unknown
Launch date: September 21, 2000
Source: United States (US)
Launch site: AIR FORCE WESTERN TEST RANGE (AFWTR)

Note: This is SATELLITE DEBRIS
Your satellite tracking list
Your tracking list is empty




NASA's NSSDC Master Catalog

Two Line Element Set (TLE):
1 41364U 00055JH  24109.10706361  .00009739  00000-0  45437-2 0  9991
2 41364  98.6690 162.8763 0013676 273.7377  86.2236 14.20527864423229
Source of the keplerian elements: AFSPC